Location: Agadir Irigdalene
(31.2522°N, 8.7797°W)
Time: 15:00:38
(UTC+00:00)

Cosmos 1943 Rocket - Pass Details

Date: 01 December 2020
Orbit: 811 x 845 km, 71.0° (Epoch: 25 January)

Event Time Altitude Azimuth Distance (km) Brightness Sun altitude
Rises 17:55:20 0° 349° (N) 3,358 5.2 -5.4°
Reaches altitude 10° 17:57:56 10° 357° (N) 2,427 4.4 -5.9°
Maximum altitude 18:03:06 38° 65° (ENE) 1,236 2.6 -6.9°
Drops below altitude 10° 18:08:17 10° 134° (SE) 2,438 4.4 -7.9°
Sets 18:10:53 0° 141° (SE) 3,373 5.1 -8.5°
